GW2438 Weather Reports


time (UTC)temp
F
wind
direction
speed
knots
gust
knots
rain 1hr
in
rain 24hr
in
rain mn
in
humidity
%
barometer
mb
20260503003545 71 356 2.6 5.2 0.00 0.00 0.00 49 1013.3
20260503002543 71 346 2.6 7.0 0.00 0.00 0.00 49 1013.3
20260503001541 71 347 3.5 6.1 0.00 0.00 0.00 49 1013.3
20260503000540 71 346 4.3 8.7 0.00 0.00 0.00 49 1013.3
20260502235538 71 353 5.2 11.3 0.00 0.00 0.00 48 1013.3
20260502234617 71 345 5.2 11.3 0.00 0.00 0.00 47 1013.4
20260502233534 71 4 6.1 11.3 0.00 0.00 0.00 46 1013.7
20260502232536 71 13 5.2 8.7 0.00 0.00 0.00 48 1013.7
20260502231531 71 342 3.5 7.0 0.00 0.00 0.00 50 1014.0
20260502230550 70 5 4.3 7.8 0.00 0.00 0.00 51 1014.0
20260502225528 70 357 5.2 12.2 0.00 0.00 0.00 51 1014.2
20260502224526 70 351 3.5 7.8 0.00 0.00 0.00 54 1014.4
20260502223544 70 354 5.2 7.0 0.00 0.00 0.00 54 1014.5
20260502222522 69 356 3.5 6.1 0.00 0.00 0.00 55 1014.6
20260502221521 69 345 3.5 8.7 0.00 0.00 0.00 56 1014.7
20260502220540 69 358 3.5 6.1 0.00 0.00 0.00 56 1014.8
20260502215517 69 5 3.5 11.3 0.00 0.00 0.00 55 1014.8
20260502214616 69 345 4.3 7.0 0.00 0.00 0.00 54 1015.0
20260502213614 69 338 4.3 9.6 0.00 0.00 0.00 56 1015.1
20260502212612 69 350 4.3 9.6 0.00 0.00 0.00 57 1015.1
20260502211611 68 7 4.3 7.8 0.00 0.00 0.00 59 1015.3
20260502210609 68 35 3.5 9.6 0.00 0.00 0.00 61 1015.2
20260502205607 68 352 5.2 9.6 0.00 0.00 0.00 62 1015.4
20260502204605 67 352 2.6 5.2 0.00 0.00 0.00 64 1015.6
20260502203603 66 4 1.7 7.0 0.00 0.00 0.00 65 1015.7
20260502202601 66 25 2.6 7.0 0.00 0.00 0.00 66 1015.7
20260502201600 65 355 2.6 7.8 0.00 0.00 0.00 67 1015.7
20260502200619 65 12 2.6 6.1 0.00 0.00 0.00 67 1015.8
20260502195617 64 340 2.6 7.0 0.00 0.00 0.00 68 1015.9
20260502194555 64 11 3.5 7.0 0.00 0.00 0.00 69 1016.0
20260502193553 63 347 0.9 3.5 0.00 0.00 0.00 69 1016.1
20260502192551 63 11 3.5 7.0 0.00 0.00 0.00 69 1016.2
20260502191549 62 353 2.6 6.1 0.00 0.00 0.00 70 1016.3
20260502190548 62 3 1.7 6.1 0.00 0.00 0.00 71 1016.4
20260502185546 62 31 2.6 6.1 0.00 0.00 0.00 72 1016.7
20260502184545 61 356 1.7 3.5 0.00 0.00 0.00 73 1016.6
20260502183543 61 2 2.6 6.1 0.00 0.00 0.00 72 1016.8
20260502182642 60 3 0.9 3.5 0.00 0.00 0.00 74 1016.9
20260502181559 60 337 0.9 6.1 0.00 0.00 0.00 74 1017.1
20260502180538 59 54 0.9 3.5 0.00 0.00 0.00 74 1017.0
20260502163522 57 342 0.9 1.7 0.00 0.00 0.00 79 1017.0
20260502162521 57 295 0.0 0.9 0.00 0.00 0.00 79 1017.1
20260502161519 57 307 0.0 0.9 0.00 0.00 0.00 78 1017.0
20260502160537 57 169 0.0 0.9 0.00 0.00 0.00 81 1017.2
20260502151608 53 175 0.0 0.9 0.00 0.00 0.00 87 1017.2
20260502150607 52 0.0 0.0 0.00 0.00 0.00 88 1017.1
20260502130546 50 0.0 0.0 0.00 0.00 0.00 87 1016.9
20260502123601 50 0.0 0.0 0.00 0.00 0.00 87 1017.2
20260502122540 50 0.0 0.0 0.00 0.00 0.00 87 1017.0
20260502121537 50 0.0 0.0 0.00 0.00 0.00 87 1017.0
20260502120536 50 0.0 0.0 0.00 0.00 0.00 87 1017.0
20260502115538 50 180 0.0 0.9 0.00 0.00 0.00 87 1017.3
20260502114532 50 0.0 0.0 0.00 0.00 0.00 86 1017.3
20260502113551 50 0.0 0.0 0.00 0.00 0.00 87 1017.3
20260502112529 50 277 0.9 1.7 0.00 0.00 0.00 88 1016.9
20260502111527 50 172 0.9 2.6 0.00 0.00 0.00 87 1017.2
20260502110545 50 274 0.0 1.7 0.00 0.00 0.00 87 1017.1
20260502105523 50 237 0.9 2.6 0.00 0.00 0.00 86 1017.4
20260502104521 50 246 1.7 3.5 0.00 0.00 0.00 86 1017.5
20260502103520 50 233 1.7 3.5 0.00 0.00 0.00 86 1017.7
20260502102518 50 226 1.7 3.5 0.00 0.00 0.00 85 1017.7
20260502101517 50 229 0.9 2.6 0.00 0.00 0.00 84 1017.5
20260502100618 50 260 0.0 0.9 0.00 0.00 0.00 84 1016.9
20260502090645 52 275 0.0 1.7 0.00 0.00 0.00 83 1016.8
20260502070605 54 255 0.9 1.7 0.00 0.00 0.00 76 1016.9
20260502065542 55 246 1.7 3.5 0.00 0.00 0.00 76 1016.7
20260502064540 55 241 2.6 3.5 0.00 0.00 0.00 75 1016.8
20260502063619 56 235 1.7 2.6 0.00 0.00 0.00 74 1016.8
20260502062557 56 236 3.5 5.2 0.00 0.00 0.00 73 1016.7
20260502061536 57 230 2.6 6.1 0.00 0.00 0.00 73 1016.7
20260502060534 57 242 2.6 5.2 0.00 0.00 0.00 73 1016.5
20260502055532 58 230 2.6 6.1 0.00 0.00 0.00 72 1016.4
20260502054530 59 244 3.5 8.7 0.00 0.00 0.00 70 1016.4
20260502053529 59 234 2.6 8.7 0.00 0.00 0.00 68 1016.4
20260502052530 60 246 2.6 5.2 0.00 0.00 0.00 67 1016.2
20260502051525 61 244 0.9 3.5 0.00 0.00 0.00 64 1016.1
20260502050523 61 0.0 0.0 0.00 0.00 0.00 63 1016.1
20260502045522 61 266 0.9 2.6 0.00 0.00 0.00 63 1016.1
20260502044520 62 268 0.9 2.6 0.00 0.00 0.00 61 1015.8
20260502043518 62 245 1.7 5.2 0.00 0.00 0.00 60 1015.8
20260502042537 62 281 0.0 0.9 0.00 0.00 0.00 60 1015.6
20260502041615 62 283 0.0 0.9 0.00 0.00 0.00 60 1015.6
20260502040613 62 274 0.0 0.9 0.00 0.00 0.00 60 1015.5
20260502035631 62 311 0.0 0.9 0.00 0.00 0.00 60 1015.4
20260502034610 62 347 0.9 2.6 0.00 0.00 0.00 60 1015.2
20260502033608 62 297 0.0 0.9 0.00 0.00 0.00 60 1015.2
20260502032607 63 331 1.7 6.1 0.00 0.00 0.00 59 1015.1
20260502031625 63 342 0.9 2.6 0.00 0.00 0.00 59 1015.0
20260502030603 64 316 0.9 3.5 0.00 0.00 0.00 58 1014.8
20260502025622 64 328 0.9 3.5 0.00 0.00 0.00 56 1014.7
20260502024600 65 336 0.9 2.6 0.00 0.00 0.00 55 1014.6
20260502023557 65 288 0.0 1.7 0.00 0.00 0.00 55 1014.6
20260502022556 66 334 1.7 5.2 0.00 0.00 0.00 54 1014.5
20260502021555 66 333 0.9 2.6 0.00 0.00 0.00 53 1014.5
20260502020613 67 348 1.7 5.2 0.00 0.00 0.00 53 1014.5
20260502015551 68 349 2.6 7.0 0.00 0.00 0.00 52 1014.4
20260502014549 68 1 2.6 7.0 0.00 0.00 0.00 52 1014.3
20260502013548 68 337 3.5 6.1 0.00 0.00 0.00 51 1014.4
20260502012546 69 359 2.6 7.0 0.00 0.00 0.00 50 1014.4
20260502011544 70 350 2.6 5.2 0.00 0.00 0.00 51 1014.4
20260502010542 70 5 3.5 7.0 0.00 0.00 0.00 51 1014.4
20260502005540 71 336 2.6 6.1 0.00 0.00 0.00 51 1014.4
20260502004539 71 332 2.6 6.1 0.00 0.00 0.00 51 1014.4